Regional Weather Roundup
Issued by NWS

Home | Current Version | Previous Version | Text Only | Print | Product List | Glossary On
Versions: 1 2 3 4 5 6 7 8 9 10 11 12 13 14 15 16 17 18 19 20 21 22 23 24 25 26 27 28 29 30 31 32 33 34 35 36 37 38 39 40 41 42 43 44 45 46 47 48 49 50
000
ASUS45 KBOU 272110
RWRCO

WEATHER ROUNDUP FOR COLORADO
NATIONAL WEATHER SERVICE PUEBLO CO
300 PM MDT MON JUL 27 2015

NOTE: "FAIR" INDICATES FEW OR NO CLOUDS BELOW 12000 FEET WITH NO
SIGNIFICANT WEATHER AND/OR OBSTRUCTIONS TO VISIBILITY.

COZ001>005-013-030-031-272200-
...NORTHWEST COLORADO...

CITY           SKY/WX    TMP DP  RH WIND       PRES   REMARKS
CRAIG          MOSUNNY   89  41  18 SW26G37   29.96S
HAYDEN         MOSUNNY   84  37  18 SW26G35   29.99S
MEEKER         MOSUNNY   88  39  17 SW22G48   29.99F
MOUNT WERNER   NOT AVBL
STEAMBOAT SPGS FAIR      83  41  22 SW15G25   30.02S
WALDEN         FAIR      77  36  22 S17G30    30.10F
$$

COZ006>008-011-272200-
...WEST CENTRAL VALLEYS...

CITY           SKY/WX    TMP DP  RH WIND       PRES   REMARKS
GRAND JUNCTION MOSUNNY   94  38  14 SW20G28   29.89F
MONTROSE       MOSUNNY   91  41  17 W14G29    30.02S
EAGLE          MOSUNNY   84  39  20 SW28G36   30.03F
RIFLE          PTSUNNY   92  37  14 SW20G36   29.93F
DELTA          NOT AVBL
NUCLA          FAIR      88  30  12 SW20G35   30.08F
$$

COZ017>023-064>068-272200-
...SOUTHWEST COLORADO...

CITY           SKY/WX    TMP DP  RH WIND       PRES   REMARKS
DURANGO        PTSUNNY   83  37  19 W13G20    30.14F
CORTEZ         SUNNY     90  37  15 S13       30.07F
PAGOSA SPRINGS FAIR      80  33  17 W10G17    30.23F
TELLURIDE      PTSUNNY   72  39  31 S8G23     30.32F
WOLF CREEK PAS NOT AVBL
$$

COZ009-010-012-014-032>034-037-058>063-272200-
...CENTRAL COLORADO...

CITY           SKY/WX    TMP DP  RH WIND       PRES   REMARKS
ASPEN          MOSUNNY   80  41  24 S13G18    30.13F
BUENA VISTA    FAIR      77  41  27 SE14G25   30.14F
COPPER MTN     PTSUNNY   59  36  41 S16G26    30.49S
BERTHOUD PASS  FAIR      55  45  67 MISG      30.53S
COTTONWOOD PAS MOSUNNY   73  32  21 W17G26    30.31S
GUNNISON       MOSUNNY   81  37  21 SW10G16   30.17F
KREMMLING      MOSUNNY   82  28  14 SW25G33   30.09S
LEADVILLE      MOSUNNY   67  37  33 W9        30.30F
MONARCH PASS   MOSUNNY   59  43  55 SW22      30.60F
SALIDA         FAIR      80  46  29 SW9       30.20F
NIWOT RIDGE    NOT AVBL
SUNLIGHT       PTSUNNY   70  45  40 CALM      30.38F
WILKERSON PASS PTSUNNY   66  37  34 SW6       30.46S
$$

COZ069>075-272200-
...SAN LUIS VALLEY/SANGRE DE CRISTO MOUNTAINS...

CITY           SKY/WX    TMP DP  RH WIND       PRES   REMARKS
ALAMOSA        PTSUNNY   80  48  32 SE15G21   30.18F
LA VETA PASS   PTSUNNY   63  43  48 MISG      30.40S
SAGUACHE       MOSUNNY   77  52  41 S12G17    30.19F
$$

COZ035-036-038>040-272200-
...NORTHERN COLORADO FRONT RANGE...

CITY           SKY/WX    TMP DP  RH WIND       PRES   REMARKS
DENVER INTL AP PTSUNNY   94  42  16 SW9G17    29.87F
DMNS CITY PARK NOT AVBL
AURORA         PTSUNNY   90  46  22 S12       29.90F
FRONT RANGE AP PTSUNNY   91  41  17 S12       29.89F
ERIE MUNI ARPT FAIR      95  38  13 SW5       29.84F
BOULDER MUN AP FAIR      93  46  20 S6        29.85F
CENTENNIAL     CLOUDY    90  42  18 S18G29    29.91F
BROOMFIELD     PTSUNNY   91  45  19 S3        29.90F
LOVELAND       PTSUNNY   95  52  23 S12       29.81F
LONGMONT       FAIR      98  44  15 CALM      29.85F
$$

COZ041-046-047-076>085-087-088-272200-
...PIKES PEAK/PALMER DIVIDE AND SOUTHERN FOOTHILLS...

CITY           SKY/WX    TMP DP  RH WIND       PRES   REMARKS
COLO. SPRINGS  PTSUNNY   88  43  20 SW14G22   30.00S
A. F. ACADEMY  MOSUNNY   86  38  18 S10       30.01F
ELLICOTT       FAIR     N/A N/A N/A SW18      29.99F
FALCON         FAIR      84  44  24 W3        30.06F
FORT CARSON    PTSUNNY   91  44  20 SW18G25   29.96F
LIMON          MOSUNNY   88  49  25 SW10      29.91F
MONUMENT HILL  CLOUDY    79  45  29 SW12G20   30.06F
TRINIDAD       PTSUNNY   94  49  21 S17G28    29.98F
$$

COZ042>045-048>051-090-091-272200-
...NORTHEAST COLORADO...

CITY           SKY/WX    TMP DP  RH WIND       PRES   REMARKS
GREELEY ARPT   PTSUNNY   99  48  18 SE9       29.82F
AKRON            N/A    N/A N/A N/A MISG      29.84F
BURLINGTON     PTSUNNY   90  64  42 S20G25    29.87F
WRAY           FAIR      94  60  31 S20G28    29.80F
STERLING       NOT AVBL
HOLYOKE        FAIR      95  63  34 S18       29.80F
FORT MORGAN    FAIR      91  53  27 E5        29.82F
$$

COZ086-089-092>099-272200-
...SOUTHEAST COLORADO...

CITY           SKY/WX    TMP DP  RH WIND       PRES   REMARKS
PUEBLO         MOSUNNY   97  45  16 W12G17    29.87F
LA JUNTA       TSTM      94  53  25 W29G39    29.85F
LAMAR          MOSUNNY  100  58  24 S17G30    29.79F
SPRINGFIELD      N/A     94  57  28 SW13G25   29.90F
$$




USA.gov is the U.S. government's official web portal to all federal, state and local government web resources and services.